Location: Bo?a Wola
(50.4192°N, 19.7966°E)
Time: 20:23:39
(UTC+00:00)

Cosmos 1455 Rocket - Pass Details

Date: 19 September 2024
Orbit: 601 x 623 km, 82.5° (Epoch: 13 October)

Event Time Altitude Azimuth Distance (km) Brightness Sun altitude
Exits shadow 02:14:12 11° 315° (NW) 1,890 5.4 -20.4°
Drops below altitude 10° 02:14:49 10° 323° (NW) 1,967 5.5 -20.3°
Sets 02:18:30 0° 355° (N) 2,883 6.8 -19.8°
